This is the latest recevied weather packets stored in our database for station/object WC4PEM-15. If no packets are shown the sender has not sent any weather packets the latest 1 day(s).
| Time | Temp. | Humidity | Pressure | Rain* | Wind** | Luminosity | Snow |
|---|---|---|---|---|---|---|---|
| 1777983602 | 20.56° C | 87% | 1015.9 hPa | 0 mm | 3.58 m/s, 84° | - | - |
| 1777983302 | 20° C | 88% | 1015.9 hPa | 0 mm | 3.58 m/s, 90° | - | - |
| 1777983118 | 20° C | 88% | 1015.7 hPa | 0 mm | 3.58 m/s, 88° | - | - |
| 1777983002 | 20° C | 88% | 1015.7 hPa | 0 mm | 3.58 m/s, 88° | - | - |
| 1777982900 | 20° C | 90% | 1015.7 hPa | 0 mm | 3.13 m/s, 84° | - | - |
| 1777982702 | 20° C | 90% | 1015.7 hPa | 0 mm | 3.13 m/s, 84° | - | - |
| 1777982402 | 19.44° C | 91% | 1015.8 hPa | 0 mm | 3.13 m/s, 92° | - | - |
| 1777982102 | 18.89° C | 92% | 1015.6 hPa | 0 mm | 3.13 m/s, 84° | - | - |
| 1777981864 | 18.89° C | 93% | 1015.6 hPa | 0 mm | 3.13 m/s, 100° | - | - |
| 1777981802 | 18.89° C | 93% | 1015.6 hPa | 0 mm | 2.68 m/s, 80° | - | - |
| 1777981502 | 18.89° C | 93% | 1015.6 hPa | 0 mm | 3.13 m/s, 100° | - | - |
| 1777981359 | 18.33° C | 93% | 1015.4 hPa | 0 mm | 3.13 m/s, 87° | - | - |
| 1777981202 | 18.33° C | 93% | 1015.4 hPa | 0 mm | 3.13 m/s, 87° | - | - |
| 1777980966 | 18.33° C | 93% | 1015.3 hPa | 0 mm | 3.13 m/s, 84° | - | - |
| 1777980902 | 18.33° C | 93% | 1015.3 hPa | 0 mm | 3.13 m/s, 84° | - | - |
| 1777980602 | 18.33° C | 94% | 1015.2 hPa | 0 mm | 3.13 m/s, 84° | - | - |
| 1777980309 | 18.33° C | 94% | 1015.2 hPa | 0 mm | 2.68 m/s, 86° | - | - |
| 1777980302 | 18.33° C | 94% | 1015.1 hPa | 0 mm | 3.13 m/s, 81° | - | - |
| 1777980006 | 17.78° C | 94% | 1015.1 hPa | 0 mm | 2.68 m/s, 90° | - | - |
| 1777980002 | 18.33° C | 94% | 1015.2 hPa | 0 mm | 2.68 m/s, 86° | - | - |
| 1777979702 | 17.78° C | 94% | 1015.1 hPa | 0 mm | 2.68 m/s, 90° | - | - |
| 1777979402 | 17.78° C | 94% | 1014.9 hPa | 0 mm | 2.24 m/s, 74° | - | - |
| 1777979102 | 17.78° C | 94% | 1015 hPa | 0 mm | 2.24 m/s, 63° | - | - |
| 1777978810 | 17.78° C | 94% | 1014.9 hPa | 0 mm | 1.79 m/s, 61° | - | - |
| 1777978802 | 17.78° C | 94% | 1015.1 hPa | 0 mm | 1.79 m/s, 67° | - | - |
* Rain latest hour (hover to see other rain measurements)
** Current wind speed in m/s (hover to see current wind gust speed)